Location: Sobotiste
(48.7170°N, 17.4000°E)
Time: 09:49:11
(UTC+02:00)

YUBILEINY - Pass Details

Date: 19 March 2026
Orbit: 1477 x 1509 km, 82.5° (Epoch: 17 April)

Event Time Altitude Azimuth Distance (km) Brightness Sun altitude
Rises 00:35:47 0° 352° (N) 4,622 ? -41.2°
Reaches altitude 10° 00:39:41 10° 7° (N) 3,634 ? -41.1°
Maximum altitude 00:46:03 22° 55° (NE) 2,818 ? -40.8°
Drops below altitude 10° 00:52:21 10° 102° (ESE) 3,614 ? -40.5°
Enters shadow 00:55:12 - 114° (ESE) 4,322 ? -40.4°
